Bridgeport, CT

4:57 PM EDT on March 27, 2017 (GMT -0400)
Sikorsky Memorial

Weather History for KBDR - September, 2013

Change the Weather History Date:

Sunday, September 15, 2013

  Actual Average Record
Temperature  
Mean Temperature 60 °F 67 °F  
Max Temperature 70 °F 74 °F 85 °F (1993)
Min Temperature 50 °F 59 °F 46 °F (1963)
Degree Days  
Heating Degree Days 5 2  
Month to date heating degree days 17 13  
Since 1 July heating degree days 17 17  
Cooling Degree Days 0 3  
Month to date cooling degree days 91 70  
Year to date cooling degree days 976 788  
Growing Degree Days 10 (Base 50)    
Moisture  
Dew Point 47 °F    
Average Humidity 62    
Maximum Humidity 83    
Minimum Humidity 40    
Precipitation  
Precipitation 0.00 in 0.12 in 1.35 in (2006)
Month to date precipitation 1.57 1.72  
Year to date precipitation 28.35 30.62  
Snow  
Snow 0.00 in 0.00 in 0.00 in (2002)
Month to date snowfall 0.0 0.0  
Since 1 July snowfall 0.0 0.0  
Snow Depth 0.00 in    
Sea Level Pressure  
Sea Level Pressure 30.14 in    
Wind  
Wind Speed 7 mph (West)    
Max Wind Speed 14 mph    
Max Gust Speed 16 mph    
Visibility 10 miles    
Events      
T = Trace of Precipitation, MM = Missing Value Source: NWS Daily Summary

Daily Weather History Graph

Daily Weather History Graph

Search for Another Location

Airport or City:

Trip Planner

Search our weather history database for the weather conditions in past years. The results will help you decide how hot, cold, wet, or windy it might be!

Date:

Astronomy

Sep. 15, 2013 Rise Set
Actual Time 6:33 AM EDT 7:01 PM EDT
Civil Twilight 6:05 AM EDT 7:28 PM EDT
Nautical Twilight 5:32 AM EDT 8:01 PM EDT
Astronomical Twilight 4:59 AM EDT 8:34 PM EDT
Moon 4:28 PM EDT (9/15) 2:06 AM EDT (9/15)
Length of Visible Light 13h 23m
Length of Day
12h 28m
Waxing Gibbous, 82% of the Moon is Illuminated
Sep 15
Waxing Gibbous
Sep 19
Full
Sep 26
Last Quarter
Oct 4
New
Oct 11
First Quarter

Hourly Weather History & Observations

Time (EDT) Temp. Dew Point Humidity Pressure Visibility Wind Dir Wind Speed Gust Speed Precip Events Conditions
12:52 AM 54.0 °F 46.9 °F 77% 30.12 in 10.0 mi NW 6.9 mph - N/A   Clear
1:52 AM 53.1 °F 46.9 °F 80% 30.13 in 10.0 mi NNW 6.9 mph - N/A   Clear
2:52 AM 52.0 °F 46.0 °F 80% 30.13 in 10.0 mi NNW 3.5 mph - N/A   Clear
3:52 AM 53.1 °F 45.0 °F 74% 30.13 in 10.0 mi NNW 5.8 mph - N/A   Clear
4:52 AM 51.1 °F 44.1 °F 77% 30.14 in 10.0 mi North 4.6 mph - N/A   Clear
5:52 AM 51.1 °F 44.1 °F 77% 30.16 in 10.0 mi NNW 4.6 mph - N/A   Clear
6:52 AM 50.0 °F 45.0 °F 83% 30.17 in 10.0 mi North 3.5 mph - N/A   Clear
7:52 AM 55.0 °F 46.0 °F 72% 30.18 in 10.0 mi North 3.5 mph - N/A   Clear
8:52 AM 59.0 °F 46.0 °F 62% 30.20 in 10.0 mi NNW 5.8 mph - N/A   Clear
9:52 AM 62.1 °F 45.0 °F 53% 30.21 in 10.0 mi WNW 5.8 mph - N/A   Clear
10:52 AM 64.9 °F 45.0 °F 48% 30.21 in 10.0 mi SW 6.9 mph - N/A   Clear
11:52 AM 63.0 °F 45.0 °F 52% 30.19 in 10.0 mi SW 10.4 mph - N/A   Clear
12:52 PM 64.9 °F 46.9 °F 52% 30.18 in 10.0 mi SSW 9.2 mph - N/A   Clear
1:52 PM 66.9 °F 46.0 °F 47% 30.17 in 10.0 mi SW 10.4 mph - N/A   Clear
2:52 PM 68.0 °F 45.0 °F 43% 30.14 in 10.0 mi SW 11.5 mph - N/A   Clear
3:52 PM 69.1 °F 45.0 °F 42% 30.13 in 10.0 mi SW 10.4 mph - N/A   Clear
4:52 PM 69.1 °F 46.0 °F 44% 30.10 in 10.0 mi SW 9.2 mph - N/A   Clear
5:52 PM 69.1 °F 46.9 °F 45% 30.10 in 10.0 mi SW 6.9 mph - N/A   Clear
6:52 PM 68.0 °F 46.0 °F 45% 30.09 in 10.0 mi WSW 4.6 mph - N/A   Clear
7:52 PM 66.0 °F 48.9 °F 54% 30.09 in 10.0 mi WSW 3.5 mph - N/A   Clear
8:52 PM 66.9 °F 55.0 °F 66% 30.10 in 10.0 mi SW 10.4 mph - N/A   Clear
9:52 PM 66.9 °F 55.9 °F 68% 30.10 in 10.0 mi SW 6.9 mph - N/A   Clear
10:52 PM 66.9 °F 57.0 °F 70% 30.10 in 10.0 mi SW 10.4 mph - N/A   Clear
11:52 PM 63.0 °F 55.9 °F 78% 30.09 in 10.0 mi NW 3.5 mph - N/A   Clear